Showing default

COSMOS 2237, 22565

Orbit data source: Space-Track

COSMOS 2237, 22565 is a payload satellite owned by GRU (CIS) in LEO that was launched on Fri, 26 Mar 1993 UTC via a ZENIT-2 launch vehicle from the Tyuratam Missile And Space Complex (TTMTR). Payloads include a variety of satellites, spacecraft, and rockets equipped with specific instruments for various scientific and technological missions. These include communications satellites like Starlink; space stations such as the ISS; scientific satellites like the Hubble; Earth observation satellites from companies like Planet Labs, Umbra, and HawkEye 360; GPS; miniature CubeSats for education and research; and military/defense satellites.

Loading next visibility...
COSMOS 2237 details
Identifier
22565, 1993-016A
Orbit
LEO
Last TLE update16 hours ago
Origin
Flag of CISGRU (CIS)
ManufacturerYuzhnoe
MissionDefense Sigint
Bus & MotorTSELINA-2, Unknown motor
Mass3,250 kg wet, 3,250 kg dry
Launch date (UTC)
1993-03-26 (32 years ago)
Launch vehicle
ZENIT-2
Launch site
Tyuratam Missile And Space Complex (TTMTR)
Object type
Payload
Rocket body
Debris
Shape & HBRUnknown shape, 19 m
Radar Cross SectionLarge (>1 m²)

Expand to show TLE details & history

TLE from 16 hours ago
0 COSMOS 2237
1 22565U 93016A   25023.93300069 -.00000166  00000-0 -63479-4 0  9999
2 22565  70.8061 309.7458 0008017 294.4399  65.5884 14.12511499641448
Epoch: 2025-01-23T22:23Z
Definitive object data (Epoch: 2025-01-23T22:23:31.259Z)
Latitude-0.00005°
Longitude-149.63788°
Altitude850.783 km
Speed7.429 km/s
True Right ascension20h 38m 58s
True Declination0° 00' 00"
Sunlit
Object was in daylight at TLE epoch
Visualization TLE readout
Latitude70.05843°
Longitude-78.38086°
Altitude867.396 km
Speed7.423 km/s
Apparent Right ascension02h 42m 14s
Apparent Declination20° 46' 44"
Sunlit
Object is in daylight
Visualization observer readout
Local Sidereal Time15:21:14
Azimuth10.39° NNE
Elevation-28.627°
Doppler factor1
Orbital elements
Apogee altitude854.53 km
Perigee altitude842.943 km
Semi-major axis7,226.874 km
Eccentricity0.0008017
Inclination70.8061°
RAAN309.7458°
Arg. of periapsis294.4399°
True anomaly65.67209°
Mean anomaly65.5884°
Eccentric anomaly65.63024°
Mean motion3.53279 °/min
BSTAR-0.000063479
Orbital period101.9 mins
Loading maneuver chart data...
Loading historical data...
Loading historical data...
Loading historical data...
Loading historical data...
Loading historical data...
Loading historical data...
Loading historical data...

COSMOS 2237 Visibility forecast

Observer location: undefined°, undefined

Span
Click to sort rows by Start time (UTC) header in descending order
Start Az.
Max El. time (UTC)
Max El. Az.
Max El.
End time (UTC)
End Az.
6 mins2025-01-24 18:55:06.933Z133.4° SE2025-01-24 18:58:06.933Z98.616° ESE16.614°2025-01-24 19:01:06.933Z64.263° ENE
9 mins2025-01-24 20:38:06.933Z220.521° SW2025-01-24 20:42:06.933Z316.112° NNW41.163°2025-01-24 20:47:06.933Z16.576° NNE
10 mins2025-01-25 05:32:06.933Z344.935° N2025-01-25 05:37:06.933Z49.969° ENE40.057°2025-01-25 05:42:06.933Z140.189° SSE
5 mins2025-01-25 07:19:06.933Z286.135° WNW2025-01-25 07:21:06.933Z260.545° W18.011°2025-01-25 07:24:06.933Z224.518° SW
|